Cartersville, GA

11:29 PM EST on November 19, 2019 (GMT -0500)
Cartersville

Weather History for KVPC - October, 2019

Change the Weather History Date:

Tuesday, October 22, 2019

  Actual Average Record
Temperature  
Mean Temperature 60 °F 59 °F  
Max Temperature 73 °F 72 °F 81 °F (2000)
Min Temperature 48 °F 46 °F 32 °F (2018)
Degree Days  
Heating Degree Days 4 7  
Month to date heating degree days 43 99  
Since 1 July heating degree days 43 117  
Cooling Degree Days 0 1  
Month to date cooling degree days 129 32  
Year to date cooling degree days 2158 1504  
Growing Degree Days 10 (Base 50)    
Moisture  
Dew Point 53 °F    
Average Humidity 71    
Maximum Humidity 94    
Minimum Humidity 25    
Precipitation  
Precipitation 0.11 in 0.09 in 1.54 in (1956)
Month to date precipitation 2.32 2.42  
Year to date precipitation 34.00 40.63  
Snow  
Snow - - - ()
Month to date snowfall 0.0  
Since 1 July snowfall 0.0  
Since 1 September snowfall 0.0  
Snow Depth 0.00 in    
Sea Level Pressure  
Sea Level Pressure 29.94 in    
Wind  
Wind Speed 3 mph ()    
Max Wind Speed 12 mph    
Max Gust Speed 17 mph    
Visibility 9.3 miles    
Events Rain    
T = Trace of Precipitation, MM = Missing Value Source: Averaged Metar Reports

Daily Weather History Graph

Daily Weather History Graph

Search for Another Location

Airport or City:

Astronomy

Oct. 22, 2019 Rise Set
Actual Time 7:50 AM EDT 6:57 PM EDT
Civil Twilight 7:24 AM EDT 7:22 PM EDT
Nautical Twilight 6:55 AM EDT 7:51 PM EDT
Astronomical Twilight 6:26 AM EDT 8:20 PM EDT
Moon 1:21 AM EDT (10/22) 3:45 PM EDT (10/22)
Length of Visible Light 11h 57m
Length of Day
11h 06m
Last Quarter, 37% of the Moon is Illuminated
Oct 22
Last Quarter
Oct 27
New
Nov 4
First Quarter
Nov 12
Full
Nov 19
Last Quarter

Hourly Weather History & Observations

Time (EDT) Temp. Dew Point Humidity Pressure Visibility Wind Dir Wind Speed Gust Speed Precip Events Conditions
12:53 AM 68.0 °F 64.0 °F 87% 29.87 in 10.0 mi SE 5.8 mph - N/A   Overcast
1:53 AM 68.0 °F 64.0 °F 87% 29.84 in 10.0 mi SE 6.9 mph - N/A   Overcast
2:53 AM 70.0 °F 63.0 °F 78% 29.84 in 10.0 mi SSE 9.2 mph - 0.00 in Rain Light Rain
3:53 AM 69.1 °F 64.0 °F 84% 29.83 in 10.0 mi South 9.2 mph - 0.00 in   Mostly Cloudy
4:51 AM 68.0 °F 64.4 °F 88% 29.86 in 10.0 mi Variable 3.5 mph - N/A   Overcast
4:53 AM 68.0 °F 64.0 °F 87% 29.83 in 10.0 mi Calm Calm - N/A   Overcast
5:11 AM 68.0 °F 64.0 °F 87% 29.87 in 10.0 mi Variable 5.8 mph - N/A   Overcast
5:23 AM 66.0 °F 62.1 °F 87% 29.88 in 5.0 mi Variable 3.5 mph - 0.01 in Rain Light Rain
5:53 AM 63.0 °F 60.1 °F 90% 29.87 in 6.0 mi Calm Calm - 0.05 in Rain Light Rain
6:08 AM 62.1 °F 60.1 °F 93% 29.92 in 4.0 mi Calm Calm - 0.02 in Rain Rain
6:17 AM 61.0 °F 57.0 °F 87% 29.92 in 3.0 mi Variable 3.5 mph - 0.04 in Rain Rain
6:50 AM 60.8 °F 59.0 °F 94% 29.94 in 10.0 mi Calm Calm - 0.06 in Rain Light Rain
6:53 AM 61.0 °F 59.0 °F 93% 29.91 in 10.0 mi Calm Calm - 0.06 in   Overcast
7:24 AM 61.0 °F 57.9 °F 90% 29.94 in 10.0 mi Calm Calm - N/A   Overcast
7:53 AM 61.0 °F 57.9 °F 90% 29.94 in 10.0 mi Calm Calm - N/A   Overcast
8:53 AM 60.1 °F 57.0 °F 90% 29.94 in 10.0 mi Calm Calm - N/A   Overcast
9:44 AM 63.0 °F 57.9 °F 84% 30.00 in 10.0 mi Calm Calm - N/A   Partly Cloudy
9:53 AM 63.0 °F 57.9 °F 84% 29.97 in 10.0 mi Calm Calm - N/A   Scattered Clouds
10:53 AM 66.0 °F 55.9 °F 70% 29.98 in 10.0 mi Variable 3.5 mph - N/A   Partly Cloudy
11:53 AM 69.1 °F 48.9 °F 49% 29.98 in 10.0 mi Variable 3.5 mph - N/A   Clear
12:53 PM 70.0 °F 44.1 °F 39% 29.97 in 10.0 mi Variable 3.5 mph - N/A   Clear
1:53 PM 72.0 °F 39.9 °F 31% 29.95 in 10.0 mi Variable 3.5 mph - N/A   Clear
2:53 PM 71.1 °F 43.0 °F 36% 29.94 in 10.0 mi Variable 3.5 mph - N/A   Clear
3:53 PM 73.0 °F 41.0 °F 31% 29.94 in 10.0 mi Variable 3.5 mph - N/A   Clear
4:53 PM 71.1 °F 34.0 °F 26% 29.95 in 10.0 mi North - - N/A   Clear
5:53 PM 68.0 °F 36.0 °F 31% 29.96 in 10.0 mi Calm Calm - N/A   Clear
6:53 PM 64.9 °F 36.0 °F 34% 29.97 in 10.0 mi Calm Calm - N/A   Clear
7:53 PM 55.0 °F 42.1 °F 62% 30.00 in 10.0 mi Calm Calm - N/A   Clear
9:53 PM 52.0 °F 42.1 °F 69% 30.04 in 10.0 mi Calm Calm - N/A   Clear
10:53 PM 51.1 °F 42.1 °F 71% 30.08 in 10.0 mi Calm Calm - N/A   Clear
11:53 PM 50.0 °F 42.1 °F 74% 30.09 in 10.0 mi Calm Calm - N/A   Clear